When you browse on this site, cookies collect data to enhance your experience and personalize the content and advertising you see.
Visit our Privacy Policy to learn more. By continuing to use the site, you agree to this use of cookies and data.
  • en France
  • Liste des pays
  • À 7 jours
  • Température de l'eau
  • Carte satellitaire
  • Carte météo
  • Widgets météo
  • user-avatar
    Se connecter

    Météo par heure à Trnava

    Ce jour, 19 Juin, Mercredi

    Heure Température Précipitation Vent Pression Humidité
    00:00 +21°C° 0.2 mm 1 m/s 748 mmHg 86%
    01:00 +20°C° 0.2 mm 1 m/s 748 mmHg 88%
    02:00 +20°C° 0 mm 1 m/s 748 mmHg 89%
    03:00 +20°C° 0 mm 1 m/s 748 mmHg 90%
    04:00 +19°C° 0 mm 1 m/s 747 mmHg 91%
    05:00 +21°C° 0 mm 1 m/s 748 mmHg 87%
    06:00 +22°C° 0 mm 1 m/s 748 mmHg 84%
    07:00 +23°C° 0 mm 1 m/s 748 mmHg 80%
    08:00 +25°C° 0.1 mm 2 m/s 747 mmHg 76%
    09:00 +26°C° 0.1 mm 2 m/s 747 mmHg 72%
    10:00 +27°C° 0.1 mm 2 m/s 747 mmHg 68%
    11:00 +28°C° 0.3 mm 2 m/s 747 mmHg 66%
    12:00 +29°C° 0.3 mm 2 m/s 747 mmHg 63%
    13:00 +29°C° 0.3 mm 3 m/s 746 mmHg 60%
    14:00 +29°C° 0.5 mm 3 m/s 746 mmHg 62%
    15:00 +29°C° 0.5 mm 3 m/s 746 mmHg 64%
    16:00 +29°C° 0.5 mm 3 m/s 745 mmHg 66%
    17:00 +28°C° 0.6 mm 2 m/s 745 mmHg 70%
    18:00 +27°C° 0.6 mm 1 m/s 745 mmHg 74%
    19:00 +25°C° 0.6 mm 1 m/s 745 mmHg 78%
    20:00 +24°C° 0.3 mm 1 m/s 745 mmHg 80%
    21:00 +21°C° 0.3 mm 0 m/s 745 mmHg 83%
    22:00 +20°C° 0.3 mm 0 m/s 745 mmHg 85%
    23:00 +20°C° 0.3 mm 0 m/s 745 mmHg 87%

    Demain, 20 Juin, Jeudi

    Heure Température Précipitation Vent Pression Humidité
    00:00 +21°C° 0.3 mm 1 m/s 745 mmHg 89%
    01:00 +21°C° 0.3 mm 1 m/s 745 mmHg 91%
    02:00 +20°C° 0 mm 1 m/s 745 mmHg 92%
    03:00 +20°C° 0 mm 1 m/s 745 mmHg 92%
    04:00 +20°C° 0 mm 1 m/s 745 mmHg 92%
    05:00 +21°C° 0.1 mm 1 m/s 745 mmHg 89%
    06:00 +22°C° 0.1 mm 1 m/s 746 mmHg 86%
    07:00 +24°C° 0.1 mm 1 m/s 746 mmHg 82%
    08:00 +25°C° 0.7 mm 1 m/s 746 mmHg 77%
    09:00 +27°C° 0.7 mm 1 m/s 746 mmHg 72%
    10:00 +28°C° 0.7 mm 1 m/s 746 mmHg 67%
    11:00 +29°C° 0.1 mm 1 m/s 746 mmHg 62%
    12:00 +28°C° 0.1 mm 0 m/s 745 mmHg 56%
    13:00 +29°C° 0.1 mm 0 m/s 745 mmHg 50%
    14:00 +29°C° 0 mm 0 m/s 745 mmHg 50%
    15:00 +31°C° 0 mm 1 m/s 745 mmHg 51%
    16:00 +31°C° 0 mm 1 m/s 745 mmHg 51%
    17:00 +29°C° 0.2 mm 1 m/s 745 mmHg 61%
    18:00 +27°C° 0.2 mm 2 m/s 745 mmHg 70%
    19:00 +25°C° 0.2 mm 2 m/s 745 mmHg 80%
    20:00 +24°C° 0.3 mm 2 m/s 745 mmHg 82%
    21:00 +23°C° 0.3 mm 1 m/s 746 mmHg 84%
    22:00 +22°C° 0.3 mm 1 m/s 746 mmHg 87%
    23:00 +21°C° 0.5 mm 1 m/s 746 mmHg 89%

    Après-demain, 21 Juin, Vendredi

    Heure Température Précipitation Vent Pression Humidité
    00:00 +20°C° 0.5 mm 2 m/s 747 mmHg 91%
    01:00 +19°C° 0.5 mm 2 m/s 747 mmHg 93%
    02:00 +19°C° 0 mm 2 m/s 747 mmHg 94%
    03:00 +18°C° 0 mm 2 m/s 747 mmHg 94%
    04:00 +18°C° 0 mm 2 m/s 747 mmHg 95%
    05:00 +19°C° 0 mm 2 m/s 747 mmHg 92%
    06:00 +20°C° 0 mm 2 m/s 747 mmHg 89%
    07:00 +21°C° 0 mm 2 m/s 748 mmHg 87%
    08:00 +22°C° 0 mm 3 m/s 748 mmHg 82%
    09:00 +25°C° 0 mm 3 m/s 748 mmHg 77%
    10:00 +26°C° 0 mm 3 m/s 748 mmHg 72%
    11:00 +27°C° 0.4 mm 3 m/s 748 mmHg 68%
    12:00 +28°C° 0.4 mm 3 m/s 747 mmHg 65%
    13:00 +29°C° 0.4 mm 3 m/s 747 mmHg 62%
    14:00 +29°C° 0.1 mm 3 m/s 747 mmHg 62%
    15:00 +29°C° 0.1 mm 3 m/s 747 mmHg 61%
    16:00 +29°C° 0.1 mm 3 m/s 747 mmHg 61%
    17:00 +28°C° 0 mm 3 m/s 747 mmHg 67%
    18:00 +26°C° 0 mm 3 m/s 747 mmHg 73%
    19:00 +25°C° 0 mm 3 m/s 747 mmHg 79%
    20:00 +24°C° 0 mm 3 m/s 747 mmHg 82%
    21:00 +21°C° 0 mm 2 m/s 747 mmHg 86%
    22:00 +20°C° 0 mm 2 m/s 748 mmHg 89%
    23:00 +20°C° 0 mm 2 m/s 747 mmHg 89%

    22 Juin, Samedi

    Heure Température Précipitation Vent Pression Humidité
    00:00 +19°C° 0 mm 2 m/s 747 mmHg 90%
    01:00 +19°C° 0 mm 2 m/s 747 mmHg 90%
    02:00 +18°C° 0 mm 2 m/s 747 mmHg 91%
    03:00 +18°C° 0 mm 2 m/s 747 mmHg 91%
    04:00 +18°C° 0 mm 2 m/s 747 mmHg 91%
    05:00 +19°C° 0 mm 2 m/s 748 mmHg 88%
    06:00 +20°C° 0 mm 2 m/s 748 mmHg 85%
    07:00 +21°C° 0 mm 2 m/s 748 mmHg 81%
    08:00 +23°C° 0 mm 2 m/s 748 mmHg 77%
    09:00 +25°C° 0 mm 2 m/s 748 mmHg 74%
    10:00 +26°C° 0 mm 2 m/s 748 mmHg 70%
    11:00 +27°C° 0 mm 1 m/s 748 mmHg 66%
    12:00 +28°C° 0 mm 1 m/s 747 mmHg 63%
    13:00 +29°C° 0 mm 1 m/s 747 mmHg 60%
    14:00 +29°C° 0.3 mm 1 m/s 747 mmHg 60%
    15:00 +29°C° 0.3 mm 1 m/s 747 mmHg 60%
    16:00 +29°C° 0.3 mm 1 m/s 746 mmHg 61%
    17:00 +28°C° 1.8 mm 1 m/s 746 mmHg 68%
    18:00 +26°C° 1.8 mm 2 m/s 746 mmHg 75%
    19:00 +25°C° 1.8 mm 2 m/s 746 mmHg 83%
    20:00 +23°C° 2 mm 2 m/s 746 mmHg 86%
    21:00 +21°C° 2 mm 2 m/s 746 mmHg 90%
    22:00 +20°C° 2 mm 2 m/s 747 mmHg 93%
    23:00 +20°C° 0.6 mm 2 m/s 747 mmHg 93%

    23 Juin, Dimanche

    Heure Température Précipitation Vent Pression Humidité
    00:00 +20°C° 0.6 mm 1 m/s 747 mmHg 93%
    01:00 +20°C° 0.6 mm 1 m/s 747 mmHg 93%
    02:00 +20°C° 0 mm 1 m/s 747 mmHg 94%
    03:00 +19°C° 0 mm 1 m/s 747 mmHg 95%
    04:00 +19°C° 0 mm 1 m/s 747 mmHg 95%
    05:00 +19°C° 0 mm 2 m/s 747 mmHg 93%
    06:00 +19°C° 0 mm 3 m/s 747 mmHg 91%
    07:00 +20°C° 0 mm 3 m/s 748 mmHg 89%
    08:00 +21°C° 0 mm 4 m/s 748 mmHg 84%
    09:00 +22°C° 0 mm 4 m/s 748 mmHg 80%
    10:00 +25°C° 0 mm 5 m/s 749 mmHg 75%
    11:00 +25°C° 0.1 mm 5 m/s 749 mmHg 73%
    12:00 +26°C° 0.1 mm 5 m/s 749 mmHg 70%
    13:00 +26°C° 0.1 mm 5 m/s 749 mmHg 68%
    14:00 +26°C° 0.1 mm 5 m/s 749 mmHg 69%
    15:00 +26°C° 0.1 mm 5 m/s 749 mmHg 70%
    16:00 +25°C° 0.1 mm 5 m/s 749 mmHg 71%
    17:00 +23°C° 0 mm 4 m/s 750 mmHg 73%
    18:00 +22°C° 0 mm 4 m/s 750 mmHg 76%
    19:00 +21°C° 0 mm 4 m/s 750 mmHg 78%
    20:00 +19°C° 0 mm 3 m/s 751 mmHg 80%
    21:00 +18°C° 0 mm 3 m/s 751 mmHg 81%
    22:00 +16°C° 0 mm 2 m/s 752 mmHg 83%
    23:00 +16°C° 0 mm 3 m/s 752 mmHg 85%

    24 Juin, Lundi

    Heure Température Précipitation Vent Pression Humidité
    00:00 +14°C° 0 mm 3 m/s 753 mmHg 86%
    01:00 +14°C° 0 mm 3 m/s 753 mmHg 88%
    02:00 +13°C° 0 mm 3 m/s 753 mmHg 87%
    03:00 +13°C° 0 mm 3 m/s 753 mmHg 86%
    04:00 +13°C° 0 mm 3 m/s 753 mmHg 84%
    05:00 +14°C° 0 mm 3 m/s 754 mmHg 81%
    06:00 +15°C° 0 mm 4 m/s 754 mmHg 77%
    07:00 +18°C° 0 mm 4 m/s 754 mmHg 74%
    08:00 +19°C° 0 mm 5 m/s 754 mmHg 70%
    09:00 +20°C° 0 mm 5 m/s 754 mmHg 66%
    10:00 +22°C° 0 mm 5 m/s 754 mmHg 62%
    11:00 +23°C° 0 mm 5 m/s 754 mmHg 59%
    12:00 +25°C° 0 mm 4 m/s 754 mmHg 55%
    13:00 +26°C° 0 mm 4 m/s 754 mmHg 52%
    14:00 +26°C° 0 mm 4 m/s 754 mmHg 53%
    15:00 +26°C° 0 mm 4 m/s 754 mmHg 54%
    16:00 +26°C° 0 mm 4 m/s 754 mmHg 55%
    17:00 +23°C° 0 mm 4 m/s 754 mmHg 61%
    18:00 +22°C° 0 mm 3 m/s 754 mmHg 67%
    19:00 +21°C° 0 mm 3 m/s 755 mmHg 73%
    20:00 +19°C° 0 mm 3 m/s 755 mmHg 72%
    21:00 +18°C° 0 mm 3 m/s 755 mmHg 71%
    22:00 +17°C° 0 mm 3 m/s 756 mmHg 69%
    23:00 +16°C° 0 mm 2 m/s 756 mmHg 70%
    Voir plus